Live-Position
3D-Globus wird geladen...
Über Starlink 11564
Group: 3 satellites
Beschreibung wird geladen...
Nächste Überflüge
Passes for default location (London). Set your location on the main map for personalized predictions.
Höhenverlauf
Loading altitude history...
No altitude history available
Zweizeiliger Elementsatz
1 62913U 25027G 26125.36519330 .00240471 00000-0 18178-2 0 9998
2 62913 43.0002 6.2270 0001501 39.8102 320.2876 15.70919031 72068
Epoch: 5. Mai 2026 •
Age: 8 hours
Aktueller Status
Höhe 354.9 km
Geschwindigkeit 7.70 km/s
Subsatellitenpunkt -0.16°S,
105.31°W
Startdatum 8. Feb. 2025
Alter 1.2 years
Typ internet
Startgruppe
Falcon 9 •
Group 12-9 •
21 satellites
Starlink 11552
62907
Starlink 11561 62908
Starlink 11567 62909
Starlink 11569 62910
Starlink 11537 62911
Starlink 11565 62912
Starlink 11566 62914
Starlink 11555 62915
Starlink 11430 62916
Starlink 11560 62917
Starlink 11562 62918
Starlink 11457 62919
Starlink 32921 62920
Starlink 32917 62921
Starlink 32916 62922
Starlink 32905 62923
Starlink 32871 62924
Starlink 32920 62925
Starlink 32922 62926
Starlink 32891 62927
Technische Details
Klassifizierung Payload
Masse 960.00 kg
Trockenmasse 910.00 kg
Gesamtmasse 960.00 kg
Länge 0.30 m
Durchmesser 4.10 m
Spannweite 29.00 m
Form Box + pan
Hersteller SPXS
Bus-Typ Starlink V2MD
Phasenstatus In Orbit
Besitzer/Staat SPXS/US
Most Searched
Loading...